Location: Bernartice
(49.6752°N, 15.1291°E)
Time: 04:20:37
(UTC+00:00)

Daily predictions for brighter satellites

Satellite Brightness Start Highest point End
(mag) Time Altitude Azimuth Time Altitude Azimuth Time Altitude Azimuth
USA 234 3.9 00:00:48 10° E 00:07:04 51° N 00:07:48 49° N
CZ-4C R/B 4.1 00:06:34 25° NNW 00:07:37 26° NNW 00:13:15 10° NE
Cosmos 2369 Rocket 4.0 00:10:56 25° NNW 00:10:56 25° NNW 00:14:15 10° NNE
ADEOS II 3.5 00:40:35 10° NNE 00:44:28 32° ENE 00:44:28 32° ENE
BREEZE-M DEB (TANK) 4.5 00:54:40 86° WSW 00:54:50 89° S 01:16:20 10° E
Cosmos 2181 Rocket 4.3 00:58:47 60° N 00:58:47 60° N 01:03:49 10° N
Cosmos 2227 Rocket 4.0 00:52:18 10° NNW 00:54:07 21° NNW 00:54:07 21° NNW
SL-16 R/B 3.7 01:15:09 31° NW 01:15:09 31° NW 01:18:29 10° NNW
USA 267 3.8 01:06:55 10° ENE 01:13:06 43° SE 01:13:06 43° SE
SJ 16-02 3.9 01:16:58 10° N 01:20:14 20° NE 01:23:30 10° E
CZ-2D R/B 2.9 01:15:03 10° N 01:18:48 44° NNW 01:18:48 44° NNW
ATLAS 2AS CENTAUR R/B 4.4 01:14:39 10° NW 01:21:35 33° NNE 01:28:06 10° E
NOSS 2-2 (D) 4.4 01:22:27 66° NNW 01:23:17 79° NE 01:30:47 10° SE
Resurs 1-4 Rocket 3.0 01:22:13 10° N 01:25:56 41° NNW 01:25:56 41° NNW
Lacrosse 5 2.7 01:29:27 44° E 01:29:27 44° E 01:33:20 10° ENE
Cosmos 2369 4.1 01:29:32 55° ESE 01:29:42 55° ESE 01:35:18 10° NE
ATLAS 5 CENTAUR R/B 3.1 01:30:41 32° N 01:30:41 32° N 01:34:13 10° NE
NPP 4.2 01:26:01 10° N 01:30:13 49° NNW 01:30:13 49° NNW
H-2A R/B 4.5 01:30:22 10° ESE 01:33:47 23° ENE 01:37:16 10° N
SL-08 R/B 3.9 01:37:45 51° N 01:37:45 51° N 01:41:19 10° N
Cosmos 1818 4.1 01:44:09 46° NNW 01:44:09 46° NNW 01:49:13 10° NNE
USA 234 3.2 01:43:15 10° ESE 01:49:47 87° NNE 01:55:07 17° WNW
IRS-P3 4.0 01:45:17 10° NNE 01:50:40 80° ESE 01:51:04 75° SSE
Timation 1 Rocket 4.2 01:45:47 10° NNW 01:51:50 90° ENE 01:57:51 10° SSE
Cosmos 1470 Rocket 4.4 01:47:41 10° N 01:50:50 46° N 01:50:50 46° N
Cosmos 2360 4.2 01:55:36 62° S 01:56:27 74° ESE 02:02:13 10° NNE
CZ-4C R/B 4.5 01:52:52 10° NW 01:58:15 27° NNE 02:04:26 10° ENE
CZ-4B R/B 3.7 01:54:05 10° N 01:58:43 58° NW 01:58:43 58° NW
Cosmos 1821 Rocket 3.9 01:52:54 10° NNW 01:59:11 70° W 02:00:04 61° SW
Cosmos 1697 Rocket 2.5 02:01:35 72° WSW 02:02:06 81° WNW 02:07:46 10° NNE
Cosmos 972 Rocket 3.7 02:05:43 83° SW 02:05:53 87° WNW 02:10:52 10° NNE
SL-8 R/B 4.2 02:07:52 46° SSE 02:07:52 46° SSE 02:11:27 10° ESE
Cosmos 1980 Rocket 2.4 02:05:36 46° S 02:07:09 66° ESE 02:12:47 10° NNE
Iridium 2 4.4 02:07:17 51° E 02:07:17 51° E 02:10:52 10° NNE
X-37B 3.4 02:09:45 14° ESE 02:09:45 14° ESE 02:10:18 10° ESE
NOSS 2-2 (C) 4.4 02:06:13 43° WNW 02:08:05 62° SW 02:15:40 10° SSE
SL-24 R/B 4.3 02:08:57 69° SSW 02:09:29 81° WSW 02:14:57 10° NNW
Cosmos 1934 Rocket 3.8 02:04:30 10° N 02:10:36 88° E 02:15:17 18° S
Cosmos 2263 Rocket 2.5 02:06:15 10° NNW 02:11:54 66° ENE 02:17:33 10° SE
Cosmos 1933 4.5 02:13:42 34° NNW 02:13:42 34° NNW 02:16:21 10° N
Meteor 1-26 Rocket 4.0 02:11:25 55° S 02:12:41 90° W 02:18:08 10° NNE
Cosmos 1515 Rocket 3.5 02:12:56 80° SSE 02:13:10 85° E 02:17:37 10° N
Cosmos 2322 Rocket 4.4 02:10:21 10° SSE 02:14:26 21° E 02:18:31 10° NE
Meteor 1-25 Rocket 4.3 02:09:04 10° NNW 02:14:43 54° W 02:14:52 54° W
Cosmos 921 Rocket 4.2 02:16:00 27° SSE 02:17:33 37° ESE 02:21:26 10° NE
SL-16 R/B 3.9 02:18:31 10° SSE 02:23:17 29° ESE 02:28:05 10° NE
Cosmos 1328 Rocket 4.1 02:24:02 45° NW 02:24:02 45° NW 02:27:48 10° N
Gbstr 26 Del rocket 4.4 02:18:38 24° WNW 02:23:58 82° SSW 02:31:27 10° ESE
Celestis-02/Orion 38 4.4 02:19:24 10° SSE 02:24:39 70° WSW 02:29:49 10° NNW
ADEOS II 2.6 02:20:13 10° N 02:25:07 41° WNW 02:25:24 40° WNW
Cosmos 1151 Rocket 3.8 02:26:32 37° NW 02:26:32 37° NW 02:29:53 10° N
CZ-3B R/B 2.0 02:25:23 59° NW 02:25:49 65° NNW 02:34:01 10° ENE
Cosmos 1500 3.5 02:22:35 10° N 02:26:27 64° E 02:28:33 24° SSE
USA 305 2.7 02:27:21 76° W 02:27:39 86° NNW 02:31:56 10° ENE
Cosmos 1812 3.9 02:26:13 21° SSE 02:28:18 41° E 02:31:58 10° NNE
Nadezhda 3 Rocket 4.1 02:26:57 44° WSW 02:28:26 54° WNW 02:34:29 10° N
Cosmos 192 4.4 02:26:47 41° S 02:28:28 74° ESE 02:33:25 10° NNE
Cosmos 1933 Rocket 3.7 02:25:01 10° NNW 02:28:51 55° WNW 02:28:51 55° WNW
Cosmos 2227 4.1 02:24:23 10° NNW 02:30:05 89° WSW 02:35:43 10° SSE
ARIANE 5 R/B 2.4 02:25:04 10° N 02:30:09 67° WNW 02:31:23 49° SW
USA 306 2.7 02:31:23 69° W 02:31:52 83° NNW 02:36:08 10° ENE
Cosmos 1666 4.3 02:28:25 10° N 02:31:59 35° ENE 02:35:28 10° SE
CZ-4C R/B 3.1 02:32:38 32° SSE 02:34:10 76° ENE 02:37:44 10° N
IDEFIX/ARIANE 42P 2.5 02:29:20 10° NNE 02:34:38 79° WNW 02:36:51 36° SSW
IRS-1D 4.4 02:30:14 10° N 02:34:56 32° WNW 02:35:24 32° WNW
Cosmos 1605 Rocket 4.0 02:30:50 10° N 02:37:16 89° W 02:43:41 10° S
Cosmos 1535 Rocket 4.5 02:32:19 10° NNW 02:38:38 64° W 02:44:55 10° S
Meteor 1-14 Rocket 4.2 02:33:20 10° NNW 02:38:52 59° W 02:42:39 20° S
ASTEX 1 3.4 02:34:39 10° N 02:39:36 63° W 02:41:21 39° SW
CZ-2C R/B 3.6 02:35:07 10° NNE 02:40:01 43° E 02:44:56 10° S
Cosmos 2228 Rocket 3.0 02:39:36 33° S 02:41:35 86° ESE 02:46:02 10° N
Meteor 1-5 Rocket 4.0 02:38:33 10° NNW 02:43:53 89° ENE 02:49:18 10° S
CZ-2D R/B 3.6 02:43:13 10° N 02:47:21 56° WNW 02:48:18 45° WSW
SL-4 R/B 4.3 02:45:52 14° S 02:48:28 22° SE 02:52:05 10° E
Meteor 2-6 Rocket 4.3 02:43:33 13° S 02:48:37 81° E 02:54:29 10° NNE
Cosmos 1869 Rocket 3.4 02:44:23 10° N 02:48:45 88° W 02:53:05 10° S
NOSS 3-4 (A) 4.2 02:42:59 10° NW 02:49:47 65° NE 02:57:20 10° SE
NOSS 3-4 (C) 4.2 02:43:05 10° NW 02:49:53 65° NE 02:57:26 10° ESE
USA 267 3.3 02:49:53 10° ENE 02:56:26 77° NNW 03:00:27 26° WSW
Cosmos 1238 Rocket 4.2 02:52:10 10° NNW 02:58:29 48° W 03:04:09 11° SSW
CZ-2C R/B 2.6 02:55:01 10° N 02:58:45 65° WNW 03:00:12 35° SW
SJ 16-02 1.3 02:54:52 10° NNW 02:59:12 59° WSW 03:03:32 10° S
CZ-2D R/B 4.1 02:57:15 10° NNW 02:59:18 12° NW 03:00:07 12° WNW
Cosmos 1782 3.6 02:59:09 33° WNW 02:59:18 33° WNW 03:02:59 10° N
USA 307 3.0 02:57:59 36° W 02:59:34 65° NNW 03:03:49 10° ENE
NOSS 3-3 (A) 4.0 02:56:40 23° SSW 03:00:31 79° SE 03:07:11 10° NE
NOSS 3-3 (C) 4.0 02:56:50 23° SSW 03:00:38 79° SE 03:07:15 10° NE
Cosmos 44 3.1 02:59:37 34° WSW 03:01:28 71° NW 03:06:11 10° NE
Meteor 1-4 Rocket 2.7 02:59:36 18° S 03:02:04 70° E 03:05:36 10° NNE
PSLV R/B 3.8 02:57:54 10° NNE 03:02:07 67° ESE 03:06:16 10° S
Cosmos 389 Rocket 3.2 03:02:26 34° WNW 03:02:26 34° WNW 03:05:43 10° N
USA 308 3.1 03:01:02 33° W 03:02:46 64° NNW 03:07:00 10° ENE
PAYLOAD A 3.9 02:59:42 10° NNE 03:04:26 76° ESE 03:09:07 10° S
Cosmos 2278 4.0 03:02:25 28° WSW 03:05:12 49° NW 03:10:45 10° NNE
USA 276 2.1 03:04:24 46° W 03:05:15 82° N 03:08:28 10° E
Resurs 1-4 Rocket 4.2 03:04:58 10° NW 03:06:02 11° NW 03:07:00 10° WNW
Cosmos 990 Rocket 3.9 03:02:17 10° NNW 03:07:29 74° WSW 03:12:40 10° SSE
H-2A R/B 2.2 03:05:11 10° S 03:09:27 50° W 03:13:50 10° NNW
ATLAS CENTAUR R/B 3.8 02:58:50 10° WNW 03:10:35 56° NNE 03:15:03 10° E
Lacrosse 5 2.3 03:08:39 25° W 03:11:26 52° NNW 03:16:25 10° NE
ERBS 2.6 03:11:03 29° SSW 03:12:30 58° SE 03:15:49 10° ENE
Cosmos 2100 Rocket 4.3 03:07:15 10° N 03:13:40 74° ENE 03:20:02 10° SSE
ATLAS 2AS CENTAUR R/B 3.1 03:06:11 10° NW 03:13:50 73° NE 03:20:51 10° SE
Cosmos 468 Rocket 4.1 03:09:34 10° SSW 03:14:52 78° ESE 03:20:09 10° NNE
Cosmos 1727 Rocket 4.0 03:08:37 10° S 03:14:58 90° WSW 03:21:21 10° N
ATLAS 5 CENTAUR R/B 4.0 03:12:35 10° NW 03:15:49 18° N 03:19:21 10° NE
Meteor 1-11 Rocket 3.7 03:15:58 10° NNW 03:21:47 71° W 03:27:24 10° S
Landsat 5 4.1 03:17:56 10° SSW 03:22:09 38° W 03:26:21 10° NNW
ADEOS Rocket 3.1 03:16:26 10° SSE 03:23:13 79° WSW 03:29:19 10° NNW
ALOS 3.6 03:18:54 10° NNE 03:23:23 42° E 03:27:48 10° S
GENESIS II 4.2 03:21:04 22° SW 03:23:37 77° NW 03:27:41 10° NE
CZ-4B R/B 1.3 03:21:05 10° SSE 03:24:14 80° ENE 03:27:30 10° NNW
Cosmos 1459 Rocket 4.0 03:23:31 10° N 03:29:40 86° E 03:35:43 10° S
ERS-2 2.4 03:28:47 10° S 03:32:16 42° W 03:35:48 10° NNW
MSX 4.3 03:27:20 10° N 03:32:45 43° WNW 03:37:58 11° SW
USA 234 3.8 03:27:22 10° SSE 03:33:16 36° SW 03:39:13 10° WNW
COSMO-SKYMED 1 3.9 03:31:45 10° SE 03:35:53 45° ENE 03:40:02 10° N
Meteor 1-27 Rocket 3.8 03:30:00 10° SSW 03:35:57 84° WNW 03:41:54 10° N
Cosmos 1484 Rocket 3.6 03:32:10 10° NNE 03:36:07 56° E 03:40:03 10° S
Cosmos 1689 Rocket 3.3 03:35:27 10° SSE 03:38:18 46° ENE 03:41:11 10° N
Cosmos 2360 Rocket 3.1 03:35:40 10° S 03:41:06 50° ESE 03:46:34 10° NE
Cosmos 1536 2.9 03:37:47 10° NNW 03:41:48 55° W 03:45:47 10° S
Cosmos 1898 Rocket 3.8 03:37:24 10° NW 03:42:20 42° WSW 03:47:17 10° S
X-37B 2.1 03:42:02 16° WSW 03:43:33 23° SSW 03:46:07 10° SE
Cosmos 1697 Rocket 4.2 03:43:20 12° W 03:47:00 20° NW 03:51:08 10° N
Meteor 1-31 Rocket 3.4 03:43:48 10° NNE 03:47:36 60° ESE 03:51:24 10° S
FENGYUN 3A 4.0 03:42:45 10° NNE 03:48:10 72° ESE 03:53:33 10° S
CZ-4C R/B 3.7 03:41:35 10° NW 03:48:17 54° NE 03:56:09 10° ESE
deb Chang Zheng 4 3.5 03:45:28 10° NNE 03:49:48 87° WNW 03:54:04 10° SSW
Cosmos 372 Rocket 4.0 03:45:05 10° NNW 03:50:18 87° ENE 03:55:25 10° SSE
Cosmos 1980 Rocket 3.3 03:47:24 13° W 03:51:38 29° NW 03:56:30 10° NNE
Cosmos 1908 Rocket 4.4 03:48:26 10° N 03:52:51 57° ENE 03:57:16 10° SSE
PSLV R/B 4.3 03:49:51 10° SSE 03:53:52 70° ENE 03:57:58 10° N
Cosmos 1437 Rocket 3.7 03:50:26 10° S 03:54:06 51° E 03:57:50 10° NNE
Cosmos 2263 Rocket 3.2 03:50:57 10° NW 03:55:21 24° WSW 03:59:45 10° SSW
Cosmos 2278 Rocket 4.3 03:50:43 10° NNW 03:55:32 27° NE 04:00:20 10° ESE
Cosmos 921 Rocket 4.1 03:52:49 12° WSW 03:55:57 25° WNW 03:59:29 10° N
Cosmos 1544 3.7 03:52:48 10° N 03:56:23 59° ENE 03:59:55 10° SSE
Cosmos 1844 3.9 03:51:54 10° NNW 03:57:31 79° ENE 04:03:04 10° SSE
Cosmos 2322 Rocket 2.2 03:52:11 10° SW 03:57:51 75° WNW 04:03:35 10° NNE
Cosmos 2208 Rocket 4.3 03:54:15 10° SSW 03:59:27 71° ESE 04:04:39 10° NNE
Cosmos 1844 Rocket 2.7 03:56:14 10° NNW 04:01:54 83° WSW 04:07:34 10° SSE
Cosmos 2173 Rocket 4.1 03:56:08 10° NNW 04:02:18 57° W 04:08:29 10° S
Cosmos 1812 4.2 04:01:31 10° WSW 04:04:18 19° WNW 04:07:06 10° NNW
Cosmos 1707 Rocket 4.1 04:00:32 10° SW 04:04:34 37° WNW 04:08:39 10° N
COSMOS 2455 4.4 03:59:55 10° NNW 04:05:28 35° NE 04:10:58 10° ESE
SL-16 R/B 2.4 04:01:31 10° SW 04:07:04 56° NW 04:12:41 10° NNE
Cosmos 1666 4.0 04:04:27 10° NW 04:07:20 21° W 04:10:12 10° SW
USA 305 3.6 04:03:53 10° W 04:08:00 47° N 04:12:08 10° ENE
Cosmos 1937 Rocket 4.0 04:03:30 10° NW 04:08:09 35° WSW 04:12:46 10° SSW
Cosmos 2237 4.4 04:02:30 10° SSW 04:08:13 84° ESE 04:13:58 10° NNE
ARIANE 5 R/B 4.4 04:06:08 10° NNW 04:08:19 13° NW 04:10:30 10° WNW
Cosmos 2242 Rocket 4.2 04:04:50 10° S 04:09:10 63° E 04:13:33 10° NNE
ADEOS 3.6 04:04:25 10° N 04:09:36 63° WNW 04:14:44 10° SSW
Cosmos 2150 Rocket 4.2 04:05:48 10° NNW 04:11:19 84° ENE 04:16:44 10° SSE
USA 306 3.6 04:08:06 10° WNW 04:12:13 46° N 04:16:20 10° ENE
IDEFIX/ARIANE 42P 4.3 04:10:26 10° NNW 04:13:24 15° NW 04:16:22 10° W
Cosmos 1125 Rocket 4.1 04:09:42 10° NNW 04:14:59 64° ENE 04:20:12 10° SE
Okean 1-7 4.1 04:11:24 10° S 04:15:31 50° E 04:19:39 10° NNE
